Miguel Paz

Scout - San Martín SJ
20 Feb 2028
Sunday
Process

Personality

Adaptability (13) Ambition (9) Controversy (1) Loyalty (1) Pressure (2) Professionalism (5) Sportsmanship (18) Temperament (11)

Profile

Coaching Style Democratic
License Continental Pro
Determination 5
Man Management 11
Motivating 10
Discipline 6
Job Satisfaction
100%
Fatigue
0%
Role Scout
Wage 66.0K p/w
Contract 14.03.2030

Performance

Behaviour Good
Training Effectiveness
45%
Player Development
25%
Injury Prevention
20%
Tactical Implementation
55%

Recent Events

Attended a recruitment meeting 14d ago
Attended a recruitment meeting 21d ago
Attending professional development 28d ago
Attended a recruitment meeting 28d ago
Attending professional development 28d ago
Attending professional development 28d ago
Attending professional development 28d ago
Attending professional development 35d ago

Currently Monitoring

104
Player Club Status Ability Confidence Watched Last Observed Latest Vote
Jordan Amissah Burton Albion Active 108 / 105 40% 1 29.11.2026 -
Matevž Vidovšek Olimpija Ljubljana Active 113 / 121 40% 1 29.11.2026 -
Josh Tymon Swansea City Active 137 / 132 40% 1 28.11.2026 -
George Wickens Lincoln City Active 116 / 116 40% 1 27.11.2026 -
Will Mannion Charlton Athletic Active 121 / 112 40% 1 27.11.2026 -
Bruno Antúnez Boston River Active 108 / 116 40% 4 25.11.2026 -
Zach Hemming Chesterfield Active 101 / 102 40% 2 25.11.2026 -
Adam Randell Bristol City Active 135 / 127 40% 1 23.11.2026 -
Yhormar Hurtado Lechia Active 110 / 115 40% 2 22.11.2026 -
Matheus Silva Qarabag Active 135 / 112 40% 1 22.11.2026 -
Patrik Demjén MTK Budapest Active 119 / 104 40% 1 20.11.2026 -
Alfie Whiteman Newport County Active 121 / 104 40% 1 20.11.2026 -
Pablo García Gijón Active 107 / 111 40% 1 20.11.2026 -
Ignacio Rodríguez Racing Club Active 132 / 124 40% 3 19.11.2026 -
Will Dennis Milton Keynes Dons Active 93 / 113 40% 1 18.11.2026 -
Dayne St. Clair Inter Miami CF Active 129 / 120 40% 2 16.11.2026 -
Justin Hammel Grasshopper Active 111 / 115 40% 1 16.11.2026 -
Patrick Schulte Columbus Crew Active 115 / 116 40% 2 14.11.2026 -
Carlos da Rosa Cerro Active 90 / 101 40% 1 10.11.2026 -
Naledi Hlongwane Wa All Stars Active 98 / 102 40% 1 08.11.2026 -
Csanád Vilmos Dénes Debrecen Active 101 / 105 40% 1 08.11.2026 -
Anthony Patterson Wrexham Active 130 / 136 40% 3 06.11.2026 -
Egoitz Arana Real Sociedad Active 111 / 114 40% 2 06.11.2026 -
Xavier Biscayzacú Defensor Sporting Active 122 / 133 40% 1 06.11.2026 -
Sandi Zajc NK Domzale Active 99 / 106 40% 1 04.11.2026 -
Eneko Astigarraga Real Sociedad Active 88 / 87 40% 1 04.11.2026 -
Emiliano Álvarez Progreso Active 116 / 127 40% 1 02.11.2026 -
Agustín Buffa Wanderers Active 91 / 94 40% 1 31.10.2026 -
Juan Pablo Salomoni Union La Calera Active 102 / 114 40% 2 29.10.2026 -
Óscar Díaz Miramar Misiones Active 102 / 117 40% 1 29.10.2026 -
Drake Callender Minnesota United FC Active 123 / 117 40% 1 28.10.2026 -
Roman Celentano FC Cincinnati Active 118 / 113 40% 1 28.10.2026 -
Diego Enríquez Sporting Cristal Active 119 / 121 40% 3 26.10.2026 -
Josh Keeley Luton Town Active 134 / 116 40% 1 26.10.2026 -
Thomas Carrique Andorra Active 131 / 127 40% 2 25.10.2026 -
Lucas Souto Defensa y Justicia Active 123 / 120 40% 1 25.10.2026 -
Facundo Miño Deportivo Riestra Active 115 / 117 40% 1 24.10.2026 -
Luis Ingolotti Atlético Tucumán Active 112 / 121 40% 2 23.10.2026 -
Teboho Mokoena Mamelodi Sundowns Active 144 / 124 40% 2 22.10.2026 -
Álex Vázquez Racing Active 104 / 109 40% 1 22.10.2026 -
Myles Roberts Cambridge United Active 89 / 103 40% 1 22.10.2026 -
Alex Bass Peterborough United Active 100 / 113 40% 1 22.10.2026 -
Leo Castledine Middlesbrough Active 112 / 142 40% 1 21.10.2026 -
Balázs Tóth Blackburn Rovers Active 137 / 114 40% 1 20.10.2026 -
Tobías Bovone Deportivo Pereira Active 112 / 109 40% 1 19.10.2026 -
Fernando Hernández Bekescsaba Active 82 / 94 40% 1 17.10.2026 -
Leandro Lozano Boca Juniors Active 128 / 126 40% 1 14.10.2026 -
Mauro Casoli Talleres Active 94 / 110 40% 1 13.10.2026 -
Lautaro Petruchi Gimnasia y Esgrima Active 113 / 115 40% 1 11.10.2026 -
Viktor Johansson Stoke City Active 136 / 141 40% 1 10.10.2026 -
Luciano Jachfe Nueva Chicago Active 119 / 123 40% 1 09.10.2026 -
Alan García Wanderers Active 106 / 108 40% 1 09.10.2026 -
Alexis Gutiérrez Club America Active 120 / 122 40% 3 08.10.2026 -
Ortwin De Wolf KV Mechelen Active 107 / 116 40% 1 05.10.2026 -
Lucas Verza Olimpia Active 103 / 111 40% 1 05.10.2026 -
Ricardo Echeverría Santos Laguna Active 118 / 118 40% 1 04.10.2026 -
José Alberti Wanderers Active 125 / 128 40% 2 30.09.2026 -
Pablo Monroy Pumas UNAM Active 114 / 120 40% 1 30.09.2026 -
Alejandro Gómez Tijuana Active 121 / 117 40% 2 28.09.2026 -
Aarón Mejía Tijuana Active 116 / 121 40% 3 27.09.2026 -
Santiago Franca Cerro Largo Active 99 / 96 40% 1 27.09.2026 -
Diego Capdevila Cerro Active 82 / 95 40% 1 26.09.2026 -
Alexander Lyng SonderjyskE Active 103 / 126 40% 1 26.09.2026 -
Luka Andrade Montevideo City Torque Active 98 / 110 40% 1 25.09.2026 -
Dylan Cabral Arsenal Active 89 / 101 40% 1 25.09.2026 -
Ezekiel Kwame Alladoh Philadelphia Union Active 111 / 117 40% 1 23.09.2026 -
Renato Solís Sporting Cristal Active 121 / 126 40% 1 20.09.2026 -
Juan Moreno La Luz Active 115 / 118 40% 1 20.09.2026 -
Jhon Gamboa Envigado Active 114 / 119 40% 1 20.09.2026 -
Juan Diego Giraldo Union Magdalena Active 94 / 111 40% 1 20.09.2026 -
Erik de los Santos Racing Active 117 / 117 40% 1 19.09.2026 -
Uziel García Morelia Active 109 / 109 40% 1 19.09.2026 -
Ihojan Pérez Cerro Largo Active 98 / 94 40% 1 17.09.2026 -
Juan José Mera Deportes Tolima Active 125 / 118 40% 1 16.09.2026 -
Diego Corral Universidad Catolica Active 95 / 94 40% 1 16.09.2026 -
Angel Zamudio Sport Huancayo Active 112 / 122 40% 2 15.09.2026 -
Lucas Bergström Union Berlin Active 135 / 134 40% 1 13.09.2026 -
Diego Chávez Deportivo Pasto Active 114 / 112 40% 2 08.09.2026 -
Joaquín Varela Independiente Medellin Active 120 / 117 40% 1 08.09.2026 -
Lucas Di Maio Cobresal Active 83 / 78 40% 1 07.09.2026 -
Emiliano Ancheta Nacional Active 127 / 113 40% 2 06.09.2026 -
Santiago Noreña Envigado Active 105 / 106 40% 1 06.09.2026 -
Santiago Sequeira Central Espanol Active 83 / 98 40% 1 06.09.2026 -
Tiago Pucciarelli IF Elfsborg Active 95 / 116 40% 1 06.09.2026 -
Nicolás Campisi Sportivo Luqueno Active 128 / 119 40% 1 02.09.2026 -
Enzo Giménez Queretaro Active 116 / 123 40% 2 31.08.2026 -
Germán Barrios Defensor Sporting Active 103 / 115 40% 1 31.08.2026 -
Matías Contrera Hrvatski Dragovoljac Active 99 / 108 40% 1 31.08.2026 -
Jorge Caicedo Cortulua Active 98 / 116 40% 1 29.08.2026 -
Michael Carcelén Queretaro Active 121 / 122 40% 2 26.08.2026 -
Ezequiel Neira Carabobo Active 112 / 116 40% 1 25.08.2026 -
Junior Hernández Deportes Tolima Active 122 / 122 40% 1 24.08.2026 -
Alejo Macelli Cerro Active 101 / 112 40% 1 23.08.2026 -
Cristhian Riveros General Caballero Active 98 / 96 40% 1 21.08.2026 -
Felipe Montero La Equidad Active 106 / 110 40% 1 19.08.2026 -
Carlos Jimenez Veracruz Active 124 / 115 40% 1 19.08.2026 -
Beycker Velásquez Zamora Active 109 / 94 40% 1 18.08.2026 -
Francisco Casanova Cerrito Active 108 / 102 40% 1 18.08.2026 -
José Ortiz Atletico Bucaramanga Active 121 / 112 40% 1 17.08.2026 -
Cristhián Rivas Estudiantes de Merida Active 118 / 120 40% 2 16.08.2026 -
José Luis Caicedo Barranquilla Active 134 / 119 40% 1 11.08.2026 -
Diego Romero Liverpool Montevideo Active 116 / 110 40% 1 09.08.2026 -
Fabrizio Correa Juventud Active 125 / 123 40% 1 08.08.2026 -
Bryan Rivera Estudiantes de Merida Active 102 / 100 40% 1 02.08.2026 -